DateTimeUTC,F1_A11,F1_S11,BsB_S11,BsG_S11,BsR_S11,BbsB_S11,BbsG_S11,BbsR_S11,BaB_A11,BaG_A11,BaR_A11,Tu_S11,T_S11,Uu_S11,U_S11,P_S11,T1_A11
2021-09-24T08:00:00Z,00040200,21000000,,,,,,,0000.01,-000.29,-000.08,17.0,24.1,,00.0,0662.0,30.9
2021-09-24T08:01:00Z,00040200,21000000,,,,,,,-000.23,0000.12,-000.20,17.0,24.2,,00.0,0662.0,30.9
2021-09-24T08:02:00Z,00040200,21000000,,,,,,,0000.03,0000.11,-000.06,17.0,24.2,,00.0,0661.9,30.9
2021-09-24T08:03:00Z,00040200,61000000,,,,,,,0008.79,0008.37,0006.42,17.0,24.2,,00.0,0661.9,30.9
2021-09-24T08:04:00Z,00040200,41000000,0002.15,0000.90,0000.78,0000.91,0000.14,0000.35,0020.03,0017.71,0014.28,17.2,24.0,,00.0,0662.8,30.9
2021-09-24T08:05:00Z,00040200,01000000,0001.00,0000.68,0000.33,-000.17,0000.09,0000.36,0017.17,0015.68,0012.43,17.2,23.9,,00.0,0662.8,30.8
2021-09-24T08:06:00Z,00040200,01000000,0001.09,0000.04,0000.29,0000.04,0000.46,0000.26,0007.22,0006.95,0005.01,17.1,23.8,,00.0,0662.8,30.8
2021-09-24T08:07:00Z,00040200,01000000,0000.16,0000.09,0000.21,-000.11,0000.14,0000.25,0004.57,0004.01,0003.02,17.1,23.8,,00.0,0662.8,30.8
2021-09-24T08:08:00Z,00040200,01000000,0001.94,0000.48,0000.77,0000.85,0000.19,-000.03,0011.08,0009.71,0008.31,17.1,23.8,,00.0,0662.8,30.8
2021-09-24T08:09:00Z,00040200,01000000,0001.25,-000.18,0000.09,0000.13,0000.12,0000.18,-000.26,0000.15,-000.27,17.1,23.8,,00.0,0662.9,30.8
2021-09-24T08:10:00Z,00040200,01000000,0001.25,0000.13,0000.21,0000.45,-000.06,0000.18,0000.23,0000.26,-000.02,17.1,23.8,,00.0,0662.9,30.8
2021-09-24T08:11:00Z,00040200,01000000,0000.61,0000.04,0000.10,0000.07,0000.06,-000.10,-000.09,-000.16,0000.19,17.2,23.8,,00.0,0662.9,30.8
2021-09-24T08:12:00Z,00040200,01000000,0000.07,0000.50,0000.30,-000.36,0000.21,0000.45,-000.22,0000.07,-000.42,17.2,23.8,,00.0,0663.0,30.8
2021-09-24T08:13:00Z,00040200,01000000,0000.30,0000.58,0000.26,0000.29,-000.10,-000.29,0000.03,-000.22,0000.14,17.2,23.8,,00.0,0662.9,30.8
2021-09-24T08:14:00Z,00040200,01000000,0000.76,0000.21,0000.11,-000.15,-000.05,-000.03,0000.04,0000.30,0000.41,17.2,23.8,,00.0,0663.0,30.8
2021-09-24T08:15:00Z,00040200,01000000,0000.65,0000.33,0000.11,-000.60,0000.32,-000.00,0000.11,-000.01,-000.09,17.3,23.8,,00.0,0663.0,30.8
2021-09-24T08:16:00Z,00040200,01000000,0000.02,0000.04,0000.29,-000.15,0000.16,0000.00,-000.24,-000.07,-000.11,17.3,23.8,,00.0,0663.0,30.8
2021-09-24T08:17:00Z,00040200,01000000,0000.33,0000.36,0000.22,0000.64,-000.20,-000.07,0000.61,0000.06,-000.11,17.3,23.8,,00.0,0663.0,30.8
2021-09-24T08:18:00Z,00040200,01000000,0000.96,0000.35,0000.37,-000.13,0000.11,0000.42,-000.50,0000.05,-000.11,17.2,23.8,,00.0,0663.0,30.8
2021-09-24T08:19:00Z,00040200,01000000,0000.06,0000.12,0000.29,0000.43,-000.10,-000.03,0000.01,0000.02,-000.19,17.1,23.8,,00.0,0662.9,30.8
2021-09-24T08:20:00Z,00040200,01000000,0000.53,0000.30,0000.12,-000.24,0000.37,0000.28,0000.29,-000.20,0000.38,17.0,23.7,,00.0,0662.9,30.8
2021-09-24T08:21:00Z,00040200,01000000,0000.59,0000.33,0000.35,-000.18,0000.05,0000.29,0000.04,0000.54,0000.10,17.0,23.7,,00.0,0662.9,30.8
2021-09-24T08:22:00Z,00040200,01000000,0000.85,0000.39,0000.23,-000.08,0000.09,0000.09,0000.39,0000.02,0000.28,17.0,23.7,,00.0,0662.9,30.8
2021-09-24T08:23:00Z,00040200,01000000,0000.79,0000.32,0000.36,0000.11,-000.08,0000.17,0000.03,0000.18,0000.09,17.0,23.7,,00.0,0662.9,30.8
2021-09-24T08:24:00Z,00040200,01000000,0000.57,0000.21,0000.05,-000.27,0000.07,0000.01,0000.26,-000.08,0000.35,17.0,23.7,,00.0,0662.9,30.8
2021-09-24T08:25:00Z,00040200,01000000,0001.27,0000.25,0000.43,-000.60,-000.17,0000.16,0000.24,0000.14,-000.28,17.0,23.7,,00.0,0663.0,30.8
2021-09-24T08:26:00Z,00040200,01000000,-000.57,-000.06,0000.35,0000.10,0000.15,0000.16,0000.07,0000.13,0000.05,17.0,23.7,,00.0,0663.0,30.8
2021-09-24T08:27:00Z,00040200,01000000,0000.38,0000.23,0000.40,0000.11,-000.02,0000.25,0000.28,0000.42,0000.15,17.1,23.7,,00.0,0663.0,30.8
2021-09-24T08:28:00Z,00040200,01000000,0000.60,0000.50,0000.41,0000.20,-000.13,0000.02,0000.08,0000.10,0000.45,17.1,23.7,,00.0,0663.0,30.8
2021-09-24T08:29:00Z,00040200,01000000,0001.16,0000.33,0000.10,0000.06,-000.04,-000.04,0000.28,0000.27,0000.21,17.1,23.7,,00.0,0663.0,30.8
2021-09-24T08:30:00Z,00040200,01000000,0000.48,0000.49,-000.11,0000.39,0000.14,-000.09,0000.14,0000.16,0000.34,17.1,23.7,,00.0,0663.0,30.8
2021-09-24T08:31:00Z,00040200,01000000,0000.71,0000.47,0000.48,-000.05,0000.12,-000.03,0000.38,0000.44,0000.02,17.1,23.7,,00.0,0663.0,30.8
2021-09-24T08:32:00Z,00040200,01000000,0000.83,0000.22,0000.45,0000.52,0000.16,0000.36,0000.20,0000.07,-000.18,17.2,23.7,,00.0,0663.0,30.8
2021-09-24T08:33:00Z,00040200,01000000,0000.72,0000.33,0000.38,0000.54,-000.06,0000.37,0000.26,-000.21,0000.32,17.2,23.7,,00.0,0663.0,30.8
2021-09-24T08:34:00Z,00040200,01000000,0000.85,0000.03,0000.38,0000.16,0000.34,0000.11,-000.11,0000.30,-000.02,17.2,23.7,,00.0,0663.0,30.8
2021-09-24T08:35:00Z,00040200,01000000,0000.69,0000.36,0000.38,-000.03,-000.03,0000.37,0000.32,-000.28,-000.06,17.1,23.7,,00.0,0663.0,30.8
2021-09-24T08:36:00Z,00040200,01000000,0001.01,0000.33,0000.37,-000.32,0000.23,0000.16,-000.24,0000.54,-000.09,17.1,23.7,,00.0,0663.0,30.8
2021-09-24T08:37:00Z,00040200,01000000,0000.75,0000.34,0000.23,0000.45,0000.12,-000.02,0000.21,0000.01,0000.48,17.1,23.6,,00.0,0663.0,30.8
2021-09-24T08:38:00Z,00040200,01000000,0001.08,0000.23,0000.14,-000.74,0000.07,0000.22,0000.39,0000.32,-000.25,17.1,23.6,,00.0,0663.0,30.8
2021-09-24T08:39:00Z,00040200,01000000,0000.76,0000.45,0000.30,0000.08,0000.16,0000.44,-000.00,-000.21,0000.37,17.1,23.7,,00.0,0663.0,30.8
2021-09-24T08:40:00Z,00040200,01000000,0000.95,0000.37,0000.42,0000.37,0000.04,-000.06,0000.13,0000.09,0000.15,17.1,23.7,,00.0,0663.0,30.8
2021-09-24T08:41:00Z,00040200,01000000,0000.33,0000.35,0000.68,0000.02,0000.12,0000.35,0000.17,0000.65,0000.20,17.1,23.7,,00.0,0663.1,30.8
2021-09-24T08:42:00Z,00040200,01000000,0000.69,0000.46,0000.16,-000.07,0000.12,0000.40,0000.21,-000.15,-000.03,17.1,23.7,,00.0,0663.1,30.8
2021-09-24T08:43:00Z,00040200,01000000,0000.35,0000.47,0000.17,-000.07,0000.16,0000.32,-000.12,0000.31,0000.26,17.2,23.7,,00.0,0663.1,30.8
2021-09-24T08:44:00Z,00040200,01000000,0000.57,0000.66,0000.01,0000.74,0000.15,0000.30,0000.35,-000.17,0000.25,17.2,23.7,,00.0,0663.1,30.8
2021-09-24T08:45:00Z,00040200,01000000,0000.13,0000.15,0000.12,0000.05,0000.44,0000.13,0000.07,0000.48,0000.28,17.2,23.7,,00.0,0663.1,30.8
2021-09-24T08:46:00Z,00040200,01000000,0000.52,0000.06,0000.28,0000.15,0000.08,0000.24,0000.23,0000.10,-000.21,17.2,23.7,,00.0,0663.1,30.8
2021-09-24T08:47:00Z,00040200,01000000,0000.74,0000.42,0000.38,0000.40,0000.11,-000.00,0000.08,-000.08,-000.02,17.2,23.7,,00.0,0663.1,30.8
2021-09-24T08:48:00Z,00040200,01000000,0001.21,0000.21,0000.39,0000.21,0000.32,0000.10,-000.04,0000.25,0000.02,17.2,23.7,,00.0,0663.1,30.8
2021-09-24T08:49:00Z,00040200,01000000,0000.73,0000.16,0000.32,-000.02,0000.15,0000.06,0000.16,-000.12,0000.00,17.1,23.7,,00.0,0663.1,30.8
2021-09-24T08:50:00Z,00040200,01000000,0001.07,0000.02,0000.20,-000.10,0000.02,0000.29,0000.02,0000.16,-000.06,17.0,23.7,,00.0,0663.1,30.8
2021-09-24T08:51:00Z,00040200,01000000,0000.46,0000.49,0000.17,0000.10,0000.21,0000.18,0000.04,-000.00,0000.10,17.0,23.6,,00.0,0663.1,30.8
2021-09-24T08:52:00Z,00040200,01000000,0000.01,0000.24,0000.24,0000.02,0000.27,0000.13,0000.39,0000.21,-000.00,17.0,23.6,,00.0,0663.1,30.8
2021-09-24T08:53:00Z,00040200,01000000,0000.16,0000.26,0000.29,-000.03,0000.21,0000.13,0000.25,0000.25,-000.10,17.0,23.6,,00.0,0663.1,30.8
2021-09-24T08:54:00Z,00040200,01000000,0001.29,0000.37,0000.04,0000.03,0000.25,0000.12,0000.16,0000.14,0000.53,17.0,23.6,,00.0,0663.1,30.8
2021-09-24T08:55:00Z,00040200,01000000,0000.58,0000.63,0000.46,0000.09,0000.06,0000.24,-000.12,0000.12,0000.19,17.0,23.6,,00.0,0663.1,30.8
2021-09-24T08:56:00Z,00040200,01000000,0000.96,0000.50,0000.38,0000.55,0000.40,0000.14,-000.18,0000.14,0000.04,17.0,23.6,,00.0,0663.2,30.8
2021-09-24T08:57:00Z,00040200,41000000,,,,,,,0001.32,0000.46,0000.51,17.1,23.7,,00.0,0663.1,30.8
2021-09-24T08:58:00Z,00040200,61000000,,,,,,,-000.28,-000.12,-000.03,16.7,23.8,,00.0,0662.2,30.8
2021-09-24T08:59:00Z,00040200,21000000,,,,,,,-000.48,-000.41,-000.27,16.7,23.9,,00.0,0662.2,30.8
